Total_Precipitation_Accumulation
0.90 0.90 1.01 0.71 0.59 0.59 0.60 0.67 0.66 0.57 0.56 0.58 0.57 0.55 0.52 0.52 0.57 0.65 0.68 0.68 0.75 0.88 0.93 0.97 1.05 1.06 1.01 0.91 0.87 0.82 0.76 0.73 0.78 0.89 0.96 0.92 0.94 1.26 1.57 1.69 1.61 1.08 1.12
0.64 0.74 0.89 0.66 0.51 0.49 0.52 0.62 0.57 0.50 0.49 0.51 0.50 0.51 0.49 0.49 0.53 0.59 0.67 0.75 0.82 0.88 0.91 1.01 1.02 0.94 0.82 0.69 0.62 0.61 0.65 0.73 0.91 1.06 0.98 0.81 0.96 1.18 1.46 1.51 1.55 0.99 0.99
0.39 0.57 0.65 0.62 0.52 0.50 0.54 0.57 0.55 0.50 0.48 0.54 0.53 0.54 0.57 0.56 0.53 0.56 0.66 0.73 0.82 0.86 0.87 0.94 0.89 0.81 0.63 0.53 0.51 0.54 0.63 0.84 1.09 1.27 1.32 0.76 0.68 1.15 1.43 1.42 1.20 0.87 0.86
0.29 0.38 0.42 0.47 0.43 0.38 0.36 0.40 0.49 0.50 0.50 0.56 0.62 0.70 0.74 0.76 0.73 0.71 0.74 0.74 0.81 0.83 0.81 0.83 0.76 0.65 0.52 0.45 0.48 0.55 0.66 0.91 1.18 1.55 1.47 0.79 0.51 0.89 1.20 1.08 0.93 0.84 0.85
0.25 0.31 0.36 0.33 0.29 0.29 0.29 0.31 0.42 0.51 0.54 0.55 0.62 0.71 0.80 0.94 0.91 0.88 0.86 0.91 0.92 0.83 0.72 0.65 0.62 0.51 0.43 0.43 0.48 0.55 0.68 0.91 1.22 1.36 1.07 0.92 0.84 0.86 0.92 0.91 0.88 0.90 0.91
0.23 0.25 0.25 0.28 0.28 0.29 0.28 0.30 0.37 0.47 0.51 0.53 0.57 0.69 0.76 0.93 1.01 0.98 0.94 0.97 0.88 0.70 0.59 0.51 0.47 0.42 0.41 0.44 0.50 0.56 0.72 0.97 1.04 0.78 0.72 0.74 0.80 0.94 0.86 1.00 1.08 1.07 0.99
0.28 0.25 0.23 0.26 0.26 0.27 0.28 0.32 0.36 0.39 0.45 0.44 0.44 0.52 0.64 0.76 0.91 0.89 0.86 0.84 0.70 0.59 0.52 0.44 0.40 0.41 0.45 0.47 0.50 0.58 0.76 1.00 0.86 0.57 0.72 0.84 0.73 0.77 0.87 1.10 1.29 1.27 1.09
0.45 0.33 0.30 0.32 0.28 0.27 0.28 0.32 0.33 0.34 0.37 0.40 0.37 0.43 0.55 0.66 0.73 0.75 0.73 0.72 0.61 0.52 0.44 0.40 0.40 0.42 0.45 0.47 0.49 0.57 0.76 0.84 0.69 0.61 0.62 0.61 0.57 0.70 0.91 1.11 1.28 1.37 1.20
0.69 0.51 0.43 0.37 0.31 0.31 0.34 0.34 0.32 0.32 0.39 0.41 0.39 0.45 0.57 0.62 0.68 0.70 0.71 0.70 0.66 0.54 0.43 0.38 0.38 0.38 0.41 0.43 0.46 0.54 0.73 0.87 0.76 0.75 0.57 0.59 0.76 0.87 1.06 1.23 1.27 1.27 1.18
0.97 0.74 0.58 0.55 0.52 0.44 0.37 0.39 0.40 0.39 0.43 0.47 0.49 0.54 0.63 0.65 0.68 0.74 0.71 0.71 0.69 0.64 0.56 0.53 0.45 0.39 0.41 0.43 0.48 0.61 0.76 0.69 0.63 0.64 0.61 0.59 0.86 1.02 1.15 1.22 1.25 1.20 1.17
1.44 1.03 0.81 0.73 0.69 0.66 0.55 0.50 0.56 0.57 0.60 0.62 0.71 0.75 0.84 0.84 0.80 0.97 0.92 0.96 0.86 0.85 0.81 0.77 0.68 0.60 0.55 0.53 0.67 0.87 0.76 0.71 0.88 0.89 0.74 0.80 0.96 1.15 1.27 1.26 1.26 1.24 1.23
1.62 1.20 1.05 0.85 0.74 0.76 0.85 1.01 1.00 0.85 0.90 1.00 1.15 1.22 1.46 1.46 1.36 1.13 1.21 1.33 1.38 1.47 1.38 1.33 1.27 1.00 0.84 0.79 1.25 1.48 0.85 0.75 0.86 0.98 0.89 0.89 1.08 1.37 1.50 1.39 1.28 1.23 1.15
1.54 1.30 1.20 1.15 1.09 0.98 1.11 1.26 1.29 1.23 1.29 1.33 1.40 1.50 1.65 1.44 1.33 1.27 1.32 1.54 1.66 1.77 1.72 1.89 1.92 1.60 1.54 1.55 1.74 1.68 1.16 1.09 1.04 0.94 0.99 1.09 1.19 1.48 1.74 1.56 1.35 1.26 1.15
1.99 1.70 1.53 1.56 1.43 1.31 1.29 1.40 1.43 1.43 1.37 1.42 1.57 1.52 1.65 1.73 1.68 1.65 1.76 1.77 1.86 2.03 2.37 2.19 2.36 2.25 2.08 1.96 1.93 1.81 1.51 1.48 1.47 1.40 1.58 1.38 1.28 1.56 1.88 1.73 1.51 1.40 1.29
2.53 2.44 2.14 1.89 1.69 1.63 1.75 1.73 1.63 1.65 1.61 1.70 1.86 1.81 1.83 2.00 2.04 2.07 2.04 2.06 1.90 2.08 2.44 2.55 2.42 2.63 2.70 2.51 2.29 2.05 1.91 1.75 1.62 1.64 1.72 1.62 1.49 1.56 1.82 1.92 1.77 1.65 1.51
2.72 2.81 2.60 2.37 2.19 2.15 2.27 2.31 2.17 1.96 2.05 2.12 2.10 1.97 2.02 2.24 2.46 2.52 2.38 2.33 2.18 2.19 2.41 2.54 2.55 3.06 2.99 2.85 2.38 2.11 2.03 1.98 1.82 1.80 1.86 1.93 1.64 1.48 1.60 1.89 2.04 1.99 1.85
3.10 3.02 2.95 2.87 2.76 2.78 2.72 2.66 2.46 2.36 2.21 2.23 2.29 2.33 2.30 2.30 2.55 2.63 2.62 2.50 2.41 2.35 2.51 2.56 2.77 3.04 2.79 2.67 2.38 2.25 2.14 2.01 1.84 1.82 2.00 2.17 1.94 1.66 1.53 1.64 1.95 2.09 2.10
3.46 3.43 3.39 3.23 3.23 3.22 3.14 3.02 2.85 2.69 2.42 2.23 2.24 2.38 2.40 2.42 2.55 2.66 2.50 2.39 2.60 2.68 2.76 2.93 3.03 3.06 2.93 2.83 2.61 2.29 2.12 2.06 1.67 1.64 1.69 1.77 1.92 1.67 1.77 1.90 2.05 2.09 2.23
3.95 4.07 4.04 3.98 3.77 3.52 3.42 3.39 3.42 3.31 2.97 2.62 2.52 2.52 2.51 2.36 2.39 2.57 2.46 2.53 2.71 2.81 2.86 2.64 3.05 3.03 3.03 2.93 2.43 2.17 1.92 1.81 1.68 1.44 1.42 1.36 1.49 1.53 1.60 1.71 1.90 1.89 2.17
4.25 4.64 4.51 4.37 4.30 4.20 4.09 3.82 3.80 3.55 3.23 3.04 2.91 2.91 2.71 2.55 2.52 2.71 2.55 2.62 2.74 2.89 2.91 2.91 3.10 3.07 2.90 2.86 2.28 2.02 1.78 1.45 1.45 1.41 1.24 1.24 1.27 1.17 1.27 1.49 1.83 1.57 1.90
4.53 4.88 4.93 5.04 4.90 4.61 4.19 3.75 3.56 3.46 3.40 3.21 2.98 2.79 2.66 2.60 2.70 2.93 2.77 2.91 2.89 2.76 2.77 2.92 3.10 2.91 2.68 2.79 2.69 2.11 1.57 1.26 1.25 1.20 1.24 1.33 1.25 1.24 1.40 1.70 1.81 1.67 1.55
4.15 4.55 4.65 4.42 4.28 4.11 3.84 3.70 3.66 3.85 3.54 3.22 3.02 2.78 2.59 2.57 2.66 2.60 2.72 2.61 2.65 2.77 2.75 2.80 3.00 2.82 2.42 2.56 2.67 2.53 1.86 1.56 1.23 0.98 1.19 1.24 1.25 1.43 1.49 1.57 1.80 1.97 1.83
3.11 3.36 3.51 3.66 3.55 3.43 3.39 3.37 3.39 3.57 3.31 3.03 2.83 2.70 2.44 2.32 2.30 2.34 2.37 2.45 2.70 2.70 2.69 2.78 2.78 2.64 2.30 2.29 2.43 2.58 2.07 1.65 1.34 0.98 0.95 1.12 1.38 1.53 1.49 1.63 1.70 1.87 1.94
2.72 2.90 2.96 2.99 3.08 3.08 3.13 3.03 2.86 2.74 2.60 2.47 2.47 2.43 2.39 2.29 2.21 2.18 2.18 2.24 2.31 2.29 2.37 2.20 2.29 2.42 2.45 2.26 2.33 2.27 2.12 1.94 1.80 1.35 1.06 1.05 1.26 1.37 1.47 1.45 1.48 1.60 1.86
2.11 2.34 2.50 2.61 2.69 2.78 2.82 2.72 2.67 2.46 2.43 2.44 2.39 2.39 2.29 2.20 2.16 2.12 2.07 2.06 1.98 1.95 2.06 2.04 2.15 2.20 2.19 2.16 2.19 2.26 2.23 2.12 1.97 1.84 1.51 1.33 1.27 1.10 1.18 1.29 1.38 1.48 1.73
1.84 2.00 2.15 2.30 2.35 2.47 2.51 2.51 2.46 2.38 2.39 2.35 2.29 2.24 2.17 2.15 2.04 1.98 1.95 1.96 1.88 1.87 1.92 1.96 2.02 1.99 2.03 2.09 2.08 2.11 2.17 2.09 2.07 2.11 1.77 1.59 1.46 1.16 1.15 1.13 1.20 1.29 1.54